Rechercher aéroport 
image banner adimage banner adimage banner ad
image banner ad

46CN - Crystal

Situé à Llano, United States

ICAO - 46CN, IATA -

Données fournies par Airmate  

Information générale

Coordonnées: N34°29'5" W117°49'35"
Élévation : 3420 feet MSL.
Variation magnétique : 14° East
Voir autres Aéroports à California

Données opérationnelles

Special qualification required
Heure actuelle UTC:
Heure actuelle locale:
Météo à : KPMD - Palmdale Usaf Plant 42 ( 29 km )
METAR: KPMD 210053Z 06011KT 10SM CLR 31/M01 A3000 RMK AO2 SLP132 T03111006
TAF: KPMD 202334Z 2100/2124 07010KT P6SM SKC FM210200 VRB03KT P6SM SKC FM211800 07010KT P6SM SKC
Voir NOTAMs / SUP AIP / TFR affectant cet aéroport [VIEW]
Fréquences de communication: [VIEW]

Pistes:

Identifiant RWYQFULongueur (ft)Largeur (ft)SurfaceLDA (ft)
074500250OTHER
254500250OTHER

Coordonnées de l'aéroport

Adresse: Llano United States

Vue satellite de 46CN